[[{"header":{"parameterUnit":"m.s-1","parameterCategory":1,"la1":30.2991,"la2":30.254,"lo1":-89.0895,"lo2":-89.0444,"dy":0.0017,"dx":0.0017,"nx":28,"ny":28,"refTime":"2023-03-20T15:00:00:Z","depth":0,"parameterNumber":2,"parameterNumberName":"U-component_of_WINDS"},"data":[0,0,0,0,0,0,0,0,0,0,0,0,0,0,0,0,0,0,0,0,0,0,0,0,0,0,0,0,0,0,0,0,0,0,0,0,0,0,0,0,0,0,0,0,0,0,0,0,0,0,0,0,0,0,0,0,0,0,-0.7178,-0.7177,0,-0.7106,-0.7105,-0.7104,-0.7077,-0.7077,-0.7077,-0.7077,-0.7003,-0.7001,-0.6999,0,0,0,0,0,0,0,0,0,0,0,0,0,-0.7289,-0.7287,-0.7178,-0.7177,-0.7176,-0.7106,-0.7105,-0.7104,-0.7077,-0.7077,-0.7077,-0.7077,-0.7004,-0.7001,-0.6999,0,0,0,0,0,0,0,0,0,0,0,0,0,-0.7231,-0.7287,-0.7178,-0.7154,-0.7151,-0.7106,-0.7105,-0.7104,-0.7077,-0.7077,-0.7077,-0.7078,-0.7005,-0.7002,-0.6998,-0.6972,0,0,-0.6988,-0.6987,0,0,0,0,0,0,0,0,-0.7235,-0.7227,-0.7158,-0.7155,-0.7152,-0.7101,-0.7117,-0.706,-0.7077,-0.7105,-0.7077,-0.7078,-0.7035,-0.703,-0.7015,-0.6969,-0.6965,-0.6988,-0.6986,-0.6985,-0.6984,0,0,0,0,0,0,0,-0.7239,-0.723,-0.7149,-0.7157,-0.7153,-0.7146,-0.7138,-0.7106,-0.7069,-0.7102,-0.71,-0.7092,-0.7034,-0.7019,-0.7013,-0.6964,-0.6988,-0.6985,-0.6983,-0.6982,-0.6892,-0.6891,0,0,0,0,0,0,-0.7247,-0.7234,-0.7152,-0.7147,-0.7195,-0.7144,-0.7135,-0.7117,-0.7069,-0.7063,-0.7092,-0.7091,-0.7024,-0.7017,-0.7011,-0.6976,-0.6985,-0.6982,-0.698,-0.6892,-0.6891,-0.6891,0,0,0,0,0,0,-0.7249,-0.724,-0.7154,-0.719,-0.7178,-0.7142,-0.7121,-0.7115,-0.71,-0.7062,-0.7055,-0.7084,-0.7024,-0.7015,-0.6982,-0.6973,-0.698,-0.6977,-0.6893,-0.6892,-0.6891,-0.6908,0,0,0,0,0,0,-0.7253,-0.7241,-0.7231,-0.719,-0.7177,-0.7127,-0.7121,-0.7114,-0.7095,-0.7093,-0.7052,-0.7045,-0.7024,-0.6987,-0.6979,-0.6969,-0.6975,-0.6893,-0.6892,-0.6891,-0.6908,-0.6908,-0.6908,0,0,0,0,0,-0.7257,-0.7239,-0.7231,-0.7221,-0.7164,-0.7127,-0.7119,-0.7095,-0.7094,-0.7084,-0.7059,-0.7047,-0.6976,-0.6984,-0.6974,-0.6964,-0.6894,-0.6892,-0.6891,-0.6908,-0.6908,-0.6908,0,0,0,0,0,0,-0.728,-0.7233,-0.7224,-0.7191,-0.7163,-0.7122,-0.7108,-0.7096,-0.7067,-0.7066,-0.7037,-0.7028,-0.6997,-0.6977,-0.6986,-0.6935,-0.6934,-0.6931,-0.6949,-0.6949,-0.6949,-0.6954,-0.6972,0,0,0,0,0,-0.7281,-0.7255,-0.7216,-0.7191,-0.7178,-0.7145,-0.7128,-0.7112,-0.7082,-0.707,-0.7042,-0.7013,-0.6984,-0.6965,-0.6937,-0.6905,-0.6895,-0.6893,-0.6893,-0.6893,-0.6891,-0.6872,-0.687,-0.6888,-0.6888,-0.6888,0,0,-0.7283,-0.7255,-0.724,-0.7195,-0.7171,-0.7145,-0.7136,-0.7108,-0.7088,-0.7065,-0.7032,-0.7011,-0.6976,-0.6943,-0.6927,-0.6925,-0.6884,-0.6892,-0.6892,-0.689,-0.687,-0.6869,-0.6867,-0.6887,-0.6887,-0.6887,0,0,-0.7274,-0.725,-0.7227,-0.7203,-0.7167,-0.7146,-0.714,-0.7101,-0.7086,-0.7052,-0.7034,-0.701,-0.696,-0.6936,-0.6917,-0.6898,-0.6886,-0.689,-0.6889,-0.6871,-0.687,-0.6869,-0.6861,-0.6859,-0.6888,-0.6888,-0.6888,0,-0.7282,-0.7242,-0.7216,-0.719,-0.717,-0.7148,-0.7124,-0.7102,-0.7059,-0.7045,-0.7044,-0.6981,-0.6956,-0.6917,-0.6913,-0.6898,-0.689,-0.6894,-0.6872,-0.6871,-0.6869,-0.6862,-0.6859,-0.6888,-0.6888,-0.6888,-0.6888,0,-0.7252,-0.7225,-0.721,-0.7169,-0.7148,-0.7122,-0.7093,-0.7074,-0.7059,-0.7038,-0.7003,-0.6972,-0.6937,-0.6926,-0.6911,-0.6884,-0.6884,-0.6878,-0.6876,-0.6868,-0.6861,-0.6858,-0.6889,-0.6889,-0.6889,-0.6889,0,0,-0.7256,-0.7201,-0.7196,-0.7176,-0.7135,-0.7113,-0.7086,-0.7051,-0.7036,-0.7006,-0.6983,-0.6942,-0.6935,-0.6914,-0.6896,-0.688,-0.6866,-0.6876,-0.6874,-0.6875,-0.6834,-0.6839,-0.6836,-0.6858,-0.6857,-0.6857,-0.6837,0,-0.7241,-0.7193,-0.7169,-0.7131,-0.7105,-0.7083,-0.706,-0.7032,-0.7011,-0.6985,-0.6962,-0.6933,-0.6927,-0.6914,-0.6897,-0.6872,-0.6858,-0.6873,-0.6835,-0.6834,-0.6845,-0.6833,-0.6838,-0.6821,-0.6834,-0.6834,-0.6833,0,-0.7218,-0.7188,-0.7148,-0.7109,-0.7097,-0.7077,-0.7042,-0.7018,-0.6986,-0.6971,-0.6947,-0.693,-0.6901,-0.6901,-0.6859,-0.687,-0.6853,-0.6838,-0.6837,-0.6832,-0.6833,-0.6827,-0.6815,-0.6812,-0.6828,-0.6829,-0.6829,0,-0.7224,-0.7174,-0.7144,-0.7128,-0.7082,-0.7068,-0.7048,-0.7015,-0.6996,-0.6966,-0.6952,-0.6919,-0.6901,-0.6876,-0.6849,-0.6852,-0.681,-0.6808,-0.6797,-0.6798,-0.679,-0.6791,-0.6774,-0.6779,-0.6779,-0.6779,-0.6779,0,-0.721,-0.7186,-0.7146,-0.7127,-0.7099,-0.7071,-0.7044,-0.7023,-0.6994,-0.697,-0.6949,-0.6927,-0.6894,-0.6867,-0.6847,-0.6815,-0.6807,-0.6795,-0.6789,-0.6796,-0.6798,-0.6785,-0.6785,-0.6779,-0.6779,-0.6779,-0.6779,0,-0.7212,-0.7184,-0.7149,-0.7108,-0.7097,-0.7079,-0.7043,-0.7024,-0.7002,-0.6972,-0.6963,-0.6928,-0.6896,-0.6867,-0.6824,-0.681,-0.6778,-0.6772,-0.6789,-0.6786,-0.6777,-0.6778,-0.6751,-0.6746,-0.6755,-0.6755,-0.6755,0,-0.7205,-0.7186,-0.7143,-0.7125,-0.7106,-0.7078,-0.7058,-0.7029,-0.7009,-0.697,-0.6955,-0.6921,-0.6893,-0.6842,-0.6812,-0.6779,-0.6772,-0.6765,-0.6767,-0.6774,-0.6771,-0.6773,-0.677,-0.6765,-0.6765,-0.6765,-0.6765,0,-0.7195,-0.7182,-0.7154,-0.7121,-0.7097,-0.707,-0.7042,-0.7028,-0.6995,-0.6973,-0.6939,-0.6917,-0.6873,-0.684,-0.6804,-0.6782,-0.6768,-0.6764,-0.676,-0.6767,-0.6778,-0.6771,-0.6789,-0.6765,-0.6765,-0.6765,-0.6765,-0.6765,-0.7192,-0.7174,-0.7141,-0.711,-0.7085,-0.7059,-0.7039,-0.7014,-0.6986,-0.6948,-0.6933,-0.6899,-0.6866,-0.6815,-0.6794,-0.6767,-0.6764,-0.6758,-0.6756,-0.6755,-0.6756,-0.6782,-0.676,-0.676,-0.676,-0.676,-0.676,0,-0.7181,-0.7158,-0.713,-0.7091,-0.7067,-0.7055,-0.7023,-0.7003,-0.6974,-0.6944,-0.6916,-0.6878,-0.6845,-0.6813,-0.6778,-0.6762,-0.6755,-0.6754,-0.6755,-0.675,-0.6761,-0.6768,-0.6761,-0.6761,-0.6761,-0.6761,-0.6761,-0.6761,-0.7172,-0.714,-0.7123,-0.7079,-0.7057,-0.7023,-0.7006,-0.6982,-0.6958,-0.6916,-0.6889,-0.6868,-0.6837,-0.68,-0.6769,-0.676,-0.6748,-0.6749,-0.6739,-0.6749,-0.675,-0.675,-0.6756,-0.6747,-0.6747,-0.673,-0.673,-0.673]},{"header":{"parameterUnit":"m.s-1","parameterCategory":1,"la1":30.2991,"la2":30.254,"lo1":-89.0895,"lo2":-89.0444,"dy":0.0017,"dx":0.0017,"nx":28,"ny":28,"refTime":"2023-03-20T15:00:00:Z","depth":0,"parameterNumber":3,"parameterNumberName":"V-component_of_WINDS"},"data":[0,0,0,0,0,0,0,0,0,0,0,0,0,0,0,0,0,0,0,0,0,0,0,0,0,0,0,0,0,0,0,0,0,0,0,0,0,0,0,0,0,0,0,0,0,0,0,0,0,0,0,0,0,0,0,0,0,0,-1.8284,-1.8285,0,-1.8372,-1.8373,-1.8374,-1.8422,-1.8422,-1.8422,-1.8422,-1.8511,-1.8513,-1.8516,0,0,0,0,0,0,0,0,0,0,0,0,0,-1.8157,-1.8159,-1.8284,-1.8285,-1.8286,-1.8372,-1.8373,-1.8375,-1.8422,-1.8422,-1.8422,-1.8422,-1.8511,-1.8513,-1.8516,0,0,0,0,0,0,0,0,0,0,0,0,0,-1.8225,-1.8159,-1.8284,-1.832,-1.8324,-1.8372,-1.8374,-1.8375,-1.8422,-1.8422,-1.8422,-1.8422,-1.851,-1.8513,-1.8516,-1.8534,0,0,-1.8527,-1.8528,0,0,0,0,0,0,0,0,-1.8221,-1.823,-1.8314,-1.8318,-1.8323,-1.8386,-1.8361,-1.8428,-1.8422,-1.8385,-1.8422,-1.8422,-1.847,-1.8476,-1.8492,-1.8538,-1.8542,-1.8527,-1.8529,-1.8531,-1.8531,0,0,0,0,0,0,0,-1.8216,-1.8226,-1.8319,-1.8315,-1.832,-1.8332,-1.8342,-1.8374,-1.8425,-1.8388,-1.8392,-1.8402,-1.8472,-1.8489,-1.8495,-1.8543,-1.8527,-1.853,-1.8532,-1.8533,-1.8611,-1.8611,0,0,0,0,0,0,-1.8206,-1.8222,-1.8316,-1.8322,-1.8271,-1.8334,-1.8346,-1.8366,-1.8425,-1.8434,-1.8401,-1.8404,-1.8483,-1.8491,-1.8498,-1.8525,-1.8531,-1.8534,-1.8536,-1.8611,-1.8611,-1.8611,0,0,0,0,0,0,-1.8203,-1.8214,-1.8313,-1.8273,-1.8286,-1.8336,-1.8359,-1.8367,-1.8385,-1.8435,-1.8444,-1.8409,-1.8484,-1.8493,-1.8525,-1.8528,-1.8535,-1.8538,-1.8611,-1.8611,-1.8611,-1.8576,0,0,0,0,0,0,-1.8199,-1.8212,-1.8219,-1.8273,-1.8288,-1.8338,-1.8359,-1.8369,-1.839,-1.8394,-1.8445,-1.8454,-1.8484,-1.852,-1.8529,-1.8533,-1.8541,-1.8611,-1.8611,-1.8611,-1.8577,-1.8575,-1.8573,0,0,0,0,0,-1.8194,-1.8205,-1.8219,-1.8231,-1.8298,-1.8338,-1.8347,-1.8383,-1.839,-1.8398,-1.8431,-1.8452,-1.8526,-1.8523,-1.8533,-1.8538,-1.8611,-1.8611,-1.8611,-1.8578,-1.8575,-1.8573,0,0,0,0,0,0,-1.815,-1.8213,-1.8229,-1.8258,-1.8293,-1.8346,-1.8357,-1.8378,-1.8411,-1.8413,-1.8455,-1.8467,-1.8495,-1.852,-1.8515,-1.856,-1.8571,-1.8573,-1.8543,-1.854,-1.8538,-1.8532,-1.8544,0,0,0,0,0,-1.8144,-1.8171,-1.8225,-1.8245,-1.8261,-1.8306,-1.8325,-1.835,-1.8387,-1.8402,-1.8437,-1.8472,-1.8504,-1.8523,-1.8555,-1.8581,-1.8594,-1.859,-1.8588,-1.8586,-1.8587,-1.8605,-1.8604,-1.8611,-1.8611,-1.8611,0,0,-1.8131,-1.8168,-1.8183,-1.8237,-1.8267,-1.8295,-1.8318,-1.8346,-1.8367,-1.8406,-1.8439,-1.8466,-1.8508,-1.8538,-1.8553,-1.8559,-1.8588,-1.8586,-1.8584,-1.8587,-1.8605,-1.8604,-1.8604,-1.8611,-1.8611,-1.8611,0,0,-1.8122,-1.8152,-1.8174,-1.8204,-1.8249,-1.8279,-1.8284,-1.8335,-1.8355,-1.8389,-1.8419,-1.8445,-1.8497,-1.8527,-1.8549,-1.8553,-1.8575,-1.8562,-1.8551,-1.8568,-1.8568,-1.8567,-1.857,-1.8571,-1.8564,-1.8564,-1.8563,0,-1.81,-1.8143,-1.8182,-1.8209,-1.8232,-1.8269,-1.8292,-1.8319,-1.8371,-1.8387,-1.8394,-1.8463,-1.8493,-1.8532,-1.8533,-1.8549,-1.8557,-1.8557,-1.8565,-1.8565,-1.8565,-1.8569,-1.8569,-1.8562,-1.8562,-1.8562,-1.8562,0,-1.8115,-1.8145,-1.8156,-1.8208,-1.8233,-1.8257,-1.83,-1.832,-1.8343,-1.8372,-1.8407,-1.8446,-1.8487,-1.8498,-1.852,-1.854,-1.8543,-1.8557,-1.8569,-1.8562,-1.8566,-1.8568,-1.8559,-1.856,-1.8561,-1.8561,0,0,-1.8079,-1.8154,-1.8157,-1.8182,-1.8236,-1.826,-1.8286,-1.8327,-1.8345,-1.838,-1.8404,-1.8449,-1.8463,-1.8488,-1.8514,-1.8528,-1.8531,-1.8541,-1.8542,-1.8539,-1.8558,-1.8548,-1.8548,-1.8546,-1.8546,-1.8546,-1.8555,0,-1.8079,-1.8129,-1.8166,-1.8202,-1.8231,-1.8268,-1.8291,-1.8327,-1.8355,-1.8384,-1.8415,-1.8447,-1.8462,-1.8478,-1.8494,-1.8528,-1.8536,-1.8527,-1.8569,-1.857,-1.8558,-1.855,-1.8539,-1.8545,-1.8556,-1.8556,-1.8557,0,-1.8085,-1.8121,-1.816,-1.8213,-1.8227,-1.8247,-1.8289,-1.8316,-1.8357,-1.8377,-1.8406,-1.8433,-1.8463,-1.8472,-1.8515,-1.8509,-1.8528,-1.8547,-1.8549,-1.8554,-1.8563,-1.8557,-1.8548,-1.8549,-1.8559,-1.8559,-1.8559,0,-1.8057,-1.8115,-1.8147,-1.8167,-1.8228,-1.8242,-1.8269,-1.831,-1.8333,-1.837,-1.8385,-1.8424,-1.8446,-1.8475,-1.8513,-1.8515,-1.8553,-1.8564,-1.8571,-1.857,-1.8577,-1.8576,-1.8572,-1.8588,-1.8588,-1.8588,-1.8588,0,-1.8053,-1.8076,-1.8136,-1.8155,-1.8183,-1.8225,-1.8251,-1.828,-1.8317,-1.8343,-1.8377,-1.8401,-1.8448,-1.8478,-1.8507,-1.8539,-1.8548,-1.8565,-1.8573,-1.8563,-1.8561,-1.8577,-1.8577,-1.8588,-1.8588,-1.8588,-1.8588,0,-1.8027,-1.8067,-1.8105,-1.8161,-1.8175,-1.8193,-1.8241,-1.8262,-1.8293,-1.8326,-1.8336,-1.8384,-1.8421,-1.8461,-1.8511,-1.8531,-1.8562,-1.8572,-1.8548,-1.8553,-1.8557,-1.8557,-1.8564,-1.8567,-1.8579,-1.8579,-1.8579,0,-1.8022,-1.8041,-1.81,-1.812,-1.8146,-1.8178,-1.8203,-1.8245,-1.8269,-1.8319,-1.8334,-1.8373,-1.8407,-1.8465,-1.8505,-1.8543,-1.8555,-1.8555,-1.8561,-1.8551,-1.8557,-1.8556,-1.8559,-1.8553,-1.8553,-1.8553,-1.8552,0,-1.801,-1.803,-1.8064,-1.8106,-1.8134,-1.8168,-1.8204,-1.8219,-1.8268,-1.8294,-1.8332,-1.8359,-1.8411,-1.8451,-1.8495,-1.8522,-1.8546,-1.855,-1.8554,-1.8544,-1.853,-1.8539,-1.8544,-1.855,-1.855,-1.855,-1.8551,-1.8551,-1.7996,-1.8015,-1.806,-1.8097,-1.8129,-1.8162,-1.8185,-1.822,-1.8253,-1.8299,-1.8322,-1.8361,-1.8404,-1.8466,-1.8492,-1.8524,-1.8531,-1.8536,-1.8537,-1.8538,-1.8536,-1.8525,-1.8532,-1.8532,-1.8532,-1.8532,-1.8532,0,-1.7987,-1.8018,-1.8052,-1.8102,-1.8131,-1.8152,-1.8193,-1.8217,-1.8251,-1.8289,-1.8322,-1.8368,-1.8406,-1.845,-1.8491,-1.8508,-1.852,-1.8518,-1.8517,-1.8524,-1.8527,-1.852,-1.8507,-1.8507,-1.8507,-1.8507,-1.8507,-1.8507,-1.7986,-1.802,-1.8045,-1.8096,-1.8127,-1.8167,-1.8188,-1.8219,-1.825,-1.83,-1.8333,-1.8361,-1.8402,-1.8447,-1.8483,-1.8495,-1.8509,-1.8504,-1.8519,-1.8521,-1.8523,-1.8525,-1.8519,-1.8506,-1.8506,-1.8513,-1.8513,-1.8513]}]]